Location: G�ppingen
(48.7089°N, 9.6563°E)
Time: 01:09:35
(UTC+01:00)

Amateur Radio Satellites - All Passes

Search period start: 23 January 2018 00:39
Search period end: 24 January 2018 00:39
Location: G�ppingen, 48.7089°N, 9.6563°E

Satellite Date Start Highest point End Downlink Frequencies (MHz)
Time Altitude Azimuth
Oscar 19 23 Jan 00:48:13 00:51:30 17° 89° (E) 00:54:46 437.125/150
Gurwin Techsat 1B 23 Jan 00:50:09 00:52:47 14° 86° (E) 00:55:24 435.225
PRISM 23 Jan 00:51:09 00:53:15 14° 301° (WNW) 00:55:22 437.425
MOZHAYETS 4 23 Jan 00:54:23 00:56:16 12° 55° (NE) 00:58:09
POLYITAN 1 23 Jan 01:12:30 01:16:34 42° 291° (WNW) 01:20:37 437.675
nSIGHT-1 23 Jan 01:14:40 01:17:51 81° 201° (SSW) 01:21:01 .
YUBILEINY 23 Jan 01:19:41 01:26:57 28° 300° (WNW) 01:34:13 435.215
BEESAT 23 Jan 01:19:45 01:22:12 14° 55° (NE) 01:24:39 436.000
AO-91 23 Jan 01:20:49 01:24:58 36° 97° (E) 01:29:30 145.960
NANOSAT C BR1 23 Jan 01:26:20 01:30:14 35° 292° (WNW) 01:34:07 145.865
BUGSAT 1 23 Jan 01:26:36 01:30:47 54° 100° (E) 01:34:56 437.445
ISS 23 Jan 01:35:55 01:39:12 78° 203° (SSW) 01:42:28 437.550
QB50P2 23 Jan 01:43:01 01:46:16 21° 298° (WNW) 01:49:30 145.880/145.840
50 SAT 23 Jan 01:47:00 01:49:56 41° 260° (W) 01:52:54 437.505
UKube-1 23 Jan 01:47:10 01:51:28 81° 257° (WSW) 01:55:48 .
VELOX 1 23 Jan 01:57:47 01:58:48 11° 273° (W) 01:59:50 145.980
DX 1 23 Jan 02:03:54 02:07:52 35° 263° (W) 02:11:51 434.975-435.025
DUCHIFAT 1 23 Jan 02:09:41 02:12:29 17° 300° (WNW) 02:15:16 145.980
EO-79 23 Jan 02:14:10 02:16:11 13° 303° (WNW) 02:18:10 145.935-145.965
O/OREOS (USA 219) 23 Jan 02:15:58 02:19:13 19° 313° (NW) 02:22:28 437.305
ITUPSAT 1 23 Jan 02:16:36 02:21:03 39° 66° (ENE) 02:25:30 437.325
Oscar 19 23 Jan 02:26:13 02:31:25 76° 287° (WNW) 02:36:33 437.125/150
MOZHAYETS 4 23 Jan 02:28:00 02:32:38 78° 73° (ENE) 02:37:18
Gurwin Techsat 1B 23 Jan 02:28:09 02:33:31 87° 105° (ESE) 02:38:50 435.225
CUBESAT XI-V 23 Jan 02:37:12 02:41:13 29° 65° (ENE) 02:45:13 437.345
nSIGHT-1 23 Jan 02:51:28 02:53:37 17° 221° (SW) 02:55:45 .
BEESAT 23 Jan 02:54:28 02:59:15 85° 72° (ENE) 03:04:04 436.000
AO-91 23 Jan 02:57:27 03:01:21 31° 292° (WNW) 03:05:34 145.960
BUGSAT 1 23 Jan 03:02:45 03:05:46 19° 299° (WNW) 03:08:45 437.445
ISS 23 Jan 03:13:05 03:15:16 17° 222° (SW) 03:17:27 437.550
AO-7 23 Jan 03:29:17 03:37:18 46° 100° (E) 03:45:12 .
ITAMSAT 1 23 Jan 03:37:04 03:41:40 31° 95° (E) 03:46:15 435.822/435.867
KKS-1 23 Jan 03:43:11 03:46:36 22° 62° (ENE) 03:50:01 437.445
STARS 23 Jan 03:54:42 03:56:43 13° 56° (NE) 03:58:43 437.465
ITUPSAT 1 23 Jan 03:54:47 03:58:57 29° 265° (W) 04:03:09 437.325
Oscar 19 23 Jan 04:07:17 04:09:53 14° 307° (NW) 04:12:29 437.125/150
MOZHAYETS 4 23 Jan 04:07:56 04:10:21 14° 272° (W) 04:12:47
Gurwin Techsat 1B 23 Jan 04:09:21 04:12:47 18° 305° (NW) 04:16:12 435.225
CUBESAT XI-V 23 Jan 04:14:04 04:18:27 39° 263° (W) 04:22:51 437.345
DOVE 4 23 Jan 04:27:39 04:31:19 26° 94° (E) 04:35:08 437.250
BEESAT 23 Jan 04:35:23 04:37:40 13° 272° (W) 04:39:57 436.000
M-CUBED/EXP-1 PRIME 23 Jan 04:49:09 04:51:23 17° 98° (E) 04:53:34 437.505
STRAND 1 23 Jan 04:52:20 04:52:58 10° 50° (NE) 04:53:35 437.568
FALCONSAT 3 23 Jan 05:03:47 05:04:20 10° 176° (S) 05:04:53 435.103
SO-50 23 Jan 05:03:58 05:08:04 37° 119° (ESE) 05:12:16 436.795
LilacSat-2 23 Jan 05:13:51 05:14:49 11° 88° (E) 05:15:46 437.200
ITAMSAT 1 23 Jan 05:16:22 05:21:16 42° 294° (WNW) 05:26:08 435.822/435.867
KKS-1 23 Jan 05:18:36 05:22:52 48° 260° (W) 05:27:10 437.445
AO-7 23 Jan 05:22:10 05:30:10 51° 301° (WNW) 05:38:06 .
CUTE-I 23 Jan 05:26:30 05:29:33 15° 88° (E) 05:32:35 437.470
STARS 23 Jan 05:28:01 05:32:22 90° 240° (WSW) 05:36:47 437.465
KAITUO 1B 23 Jan 05:40:54 05:42:54 14° 90° (E) 05:44:53 145.475/437.950
XW-2F 23 Jan 05:45:50 05:48:42 20° 93° (E) 05:51:32 145.980 - 146.000
NUDT-PHONESAT 23 Jan 05:47:34 05:49:49 15° 91° (E) 05:52:05 437.300
XW-2D 23 Jan 05:57:08 06:00:29 30° 96° (E) 06:03:49 145.860 - 145.880
DOVE 4 23 Jan 06:05:05 06:09:06 38° 291° (WNW) 06:13:19 437.250
XW-2B 23 Jan 06:14:39 06:18:17 45° 99° (E) 06:21:53 145.730 - 145.750
RS-15 23 Jan 06:18:15 06:26:22 21° 97° (E) 06:34:23 29.354- 29.394
M-CUBED/EXP-1 PRIME 23 Jan 06:22:52 06:25:59 34° 297° (WNW) 06:28:58 437.505
STRAND 1 23 Jan 06:26:06 06:31:03 55° 70° (ENE) 06:36:04 437.568
CUTE 1.7 + AOD 2 23 Jan 06:32:46 06:36:10 23° 93° (E) 06:39:33 437.475
FO-29 23 Jan 06:33:28 06:39:18 36° 65° (ENE) 06:44:33 435.910
SO-50 23 Jan 06:44:20 06:48:32 38° 320° (NW) 06:52:49 436.795
XW-2C 23 Jan 06:45:05 06:48:52 78° 284° (WNW) 06:52:35 145.795 - 145.815
LilacSat-2 23 Jan 06:45:47 06:49:34 71° 286° (WNW) 06:53:19 437.200
HO-68 23 Jan 06:54:27 07:01:14 43° 98° (E) 07:07:59 435.675
CUTE-I 23 Jan 07:04:57 07:10:18 86° 286° (WNW) 07:15:39 437.470
CUBEBUG 2 23 Jan 07:07:27 07:11:55 37° 96° (E) 07:16:18 437.445
STARS 23 Jan 07:08:19 07:09:23 11° 273° (W) 07:10:25 437.465
UWE-3 23 Jan 07:08:30 07:12:15 23° 92° (E) 07:15:55 435.000/436.395/437.385
KAITUO 1B 23 Jan 07:13:34 07:17:10 50° 288° (WNW) 07:20:44 145.475/437.950
AO-7 23 Jan 07:16:18 07:21:04 17° 324° (NW) 07:25:50 .
XW-2F 23 Jan 07:19:28 07:22:54 34° 291° (WNW) 07:26:18 145.980 - 146.000
NUDT-PHONESAT 23 Jan 07:20:23 07:23:54 44° 289° (WNW) 07:27:24 437.300
AAUSAT CUBESAT 2 23 Jan 07:25:55 07:29:11 22° 93° (E) 07:32:25 437.432
ZACube-1 23 Jan 07:27:21 07:30:37 19° 90° (E) 07:33:49 437.345
UNISAT 6 23 Jan 07:29:56 07:31:42 12° 55° (NE) 07:33:30 437.425
YUBILEINY 23 Jan 07:30:52 07:34:42 13° 44° (NE) 07:38:31 435.215
XW-2D 23 Jan 07:31:28 07:34:33 24° 294° (WNW) 07:37:36 145.860 - 145.880
AO-73 23 Jan 07:32:42 07:35:56 19° 90° (E) 07:39:06 145.935
XW-2B 23 Jan 07:49:37 07:52:08 17° 297° (WNW) 07:54:39 145.730 - 145.750
SEEDS 23 Jan 07:50:49 07:55:00 90° 10° (N) 07:59:10 437.485
Oscar 11 23 Jan 08:03:09 08:06:36 23° 92° (E) 08:10:01 .
STRAND 1 23 Jan 08:06:36 08:10:35 23° 268° (W) 08:14:36 437.568
CUTE 1.7 + AOD 2 23 Jan 08:08:12 08:12:08 38° 291° (WNW) 08:16:01 437.475
FO-29 23 Jan 08:18:00 08:24:20 45° 261° (W) 08:29:59 435.910
RS-15 23 Jan 08:24:28 08:36:40 72° 121° (ESE) 08:48:39 29.354- 29.394
SO-50 23 Jan 08:27:52 08:30:16 14° 343° (NNW) 08:32:42 436.795
PRISM 23 Jan 08:35:06 08:36:19 11° 56° (ENE) 08:37:32 437.425
XW-2A 23 Jan 08:38:07 08:41:29 66° 284° (WNW) 08:44:46 145.665 - 145.685
HO-68 23 Jan 08:42:17 08:49:01 46° 298° (WNW) 08:55:45 435.675
CUBEBUG 2 23 Jan 08:44:14 08:48:24 31° 295° (WNW) 08:52:33 437.445
UWE-3 23 Jan 08:44:24 08:48:54 47° 290° (WNW) 08:53:20 435.000/436.395/437.385
CUTE-I 23 Jan 08:46:25 08:49:36 16° 306° (NW) 08:52:47 437.470
TIGRISAT 23 Jan 08:47:20 08:51:40 51° 70° (ENE) 08:56:08 435.000
AAUSAT CUBESAT 2 23 Jan 09:00:56 09:04:45 38° 291° (WNW) 09:08:33 437.432
O/OREOS (USA 219) 23 Jan 09:01:54 09:06:03 35° 55° (NE) 09:10:09 437.305
ZACube-1 23 Jan 09:02:45 09:07:14 55° 288° (WNW) 09:11:37 437.345
UNISAT 6 23 Jan 09:03:08 09:07:36 79° 73° (ENE) 09:12:13 437.425
AO-73 23 Jan 09:08:02 09:12:30 55° 289° (WNW) 09:16:52 145.935
DELFI C3 23 Jan 09:15:22 09:18:36 24° 94° (E) 09:21:49 145.870
Max Valier Satellite 23 Jan 09:25:17 09:28:05 20° 93° (E) 09:30:52 145.860
YUBILEINY 23 Jan 09:25:43 09:34:11 50° 71° (ENE) 09:42:34 435.215
SEEDS 23 Jan 09:28:29 09:30:02 12° 302° (WNW) 09:31:33 437.485
PCSat 23 Jan 09:30:24 09:35:32 46° 116° (ESE) 09:40:42 145.827
AIST 2D 23 Jan 09:31:15 09:33:21 15° 63° (ENE) 09:35:26 435.315
EO-88 23 Jan 09:38:27 09:41:03 18° 92° (E) 09:43:38 145.990 - 145.960
Oscar 11 23 Jan 09:38:50 09:42:54 41° 291° (WNW) 09:46:58 .
BEESAT 3 23 Jan 09:40:38 09:44:35 65° 124° (SE) 09:48:33 437.485
DUCHIFAT 1 23 Jan 09:56:52 09:57:16 10° 55° (NE) 09:57:40 145.980
EO-79 23 Jan 09:59:13 10:01:25 14° 58° (ENE) 10:03:36 145.935-145.965
PRISM 23 Jan 10:06:51 10:10:54 87° 77° (ENE) 10:15:00 437.425
SO-50 23 Jan 10:11:01 10:12:43 12° 8° (N) 10:14:26 436.795
TIGRISAT 23 Jan 10:25:20 10:28:39 20° 269° (W) 10:32:03 435.000
HO-68 23 Jan 10:32:15 10:35:04 13° 320° (NW) 10:37:53 435.675
POLYITAN 1 23 Jan 10:33:09 10:36:45 27° 65° (ENE) 10:40:23 437.675
BEESAT 2 23 Jan 10:34:30 10:38:28 64° 125° (SE) 10:42:30 435.950
RS-15 23 Jan 10:38:02 10:49:58 52° 328° (NNW) 11:01:36 29.354- 29.394
ESTCUBE 1 23 Jan 10:39:58 10:42:03 13° 88° (E) 10:44:07 437.505/2401.250
O/OREOS (USA 219) 23 Jan 10:41:26 10:45:23 31° 254° (WSW) 10:49:19 437.305
UNISAT 6 23 Jan 10:42:45 10:44:56 13° 273° (W) 10:47:07 437.425
NANOSAT C BR1 23 Jan 10:46:13 10:49:59 32° 66° (ENE) 10:53:46 145.865
DELFI C3 23 Jan 10:49:51 10:53:23 33° 292° (WNW) 10:56:54 145.870
LO-87 23 Jan 10:50:01 10:52:29 17° 92° (E) 10:54:56 145.935 - 145.965
Max Valier Satellite 23 Jan 10:58:37 11:02:01 35° 291° (WNW) 11:05:22 145.860
QB50P2 23 Jan 11:02:24 11:06:34 57° 72° (ENE) 11:10:47 145.880/145.840
AIST 2D 23 Jan 11:02:46 11:06:10 46° 261° (W) 11:09:34 435.315
EO-88 23 Jan 11:11:27 11:14:49 36° 290° (WNW) 11:18:10 145.990 - 145.960
PCSat 23 Jan 11:14:00 11:19:03 38° 317° (NW) 11:24:07 145.827
BEESAT 3 23 Jan 11:19:18 11:22:28 22° 325° (NW) 11:25:39 437.485
YUBILEINY 23 Jan 11:22:51 11:30:53 43° 274° (W) 11:38:53 435.215
DUCHIFAT 1 23 Jan 11:27:56 11:32:07 72° 74° (ENE) 11:36:22 145.980
EO-79 23 Jan 11:32:20 11:36:34 79° 257° (WSW) 11:40:52 145.935-145.965
SPROUT 23 Jan 11:42:27 11:44:42 14° 89° (E) 11:46:55 437.525
AO-85 23 Jan 11:49:11 11:53:04 50° 122° (ESE) 11:57:16 145.980
SO-50 23 Jan 11:50:59 11:54:48 24° 32° (NNE) 11:58:40 436.795
VELOX 1 23 Jan 12:04:52 12:06:55 13° 88° (E) 12:08:57 145.980
Oscar 19 23 Jan 12:08:12 12:12:57 37° 65° (ENE) 12:17:42 437.125/150
POLYITAN 1 23 Jan 12:08:32 12:12:25 34° 263° (W) 12:16:21 437.675
BEESAT 2 23 Jan 12:13:17 12:16:33 23° 325° (NW) 12:19:50 435.950
Gurwin Techsat 1B 23 Jan 12:14:09 12:18:51 33° 63° (ENE) 12:23:33 435.225
ESTCUBE 1 23 Jan 12:14:55 12:19:26 79° 286° (WNW) 12:23:54 437.505/2401.250
BUGSAT 1 23 Jan 12:19:31 12:23:33 61° 72° (ENE) 12:27:41 437.445
NANOSAT C BR1 23 Jan 12:22:00 12:25:41 29° 265° (W) 12:29:24 145.865
LO-87 23 Jan 12:22:37 12:26:03 39° 290° (WNW) 12:29:27 145.935 - 145.965
AO-91 23 Jan 12:22:39 12:25:49 36° 69° (ENE) 12:29:10 145.960
QB50P2 23 Jan 12:40:01 12:42:43 16° 270° (W) 12:45:26 145.880/145.840
AO-7 23 Jan 12:42:23 12:48:50 26° 46° (NE) 12:55:18 .
RS-15 23 Jan 12:54:50 13:05:50 37° 0° (N) 13:16:24 29.354- 29.394
PCSat 23 Jan 13:01:11 13:04:02 14° 341° (NNW) 13:06:53 145.827
DUCHIFAT 1 23 Jan 13:06:19 13:08:17 13° 272° (W) 13:10:16 145.980
SPROUT 23 Jan 13:16:45 13:21:03 70° 287° (WNW) 13:25:20 437.525
ITAMSAT 1 23 Jan 13:22:58 13:25:15 13° 52° (NE) 13:27:32 435.822/435.867
AO-85 23 Jan 13:30:08 13:33:44 28° 324° (NW) 13:37:36 145.980
SO-50 23 Jan 13:31:05 13:35:47 80° 234° (SW) 13:40:33 436.795
UKube-1 23 Jan 13:31:51 13:33:43 12° 88° (E) 13:35:35 .
VELOX 1 23 Jan 13:39:29 13:43:54 77° 287° (WNW) 13:48:17 145.980
Oscar 19 23 Jan 13:47:29 13:52:15 36° 263° (W) 13:57:03 437.125/150
DX 1 23 Jan 13:47:46 13:51:34 28° 96° (E) 13:55:20 434.975-435.025
Gurwin Techsat 1B 23 Jan 13:53:41 13:58:41 42° 262° (W) 14:03:44 435.225
ESTCUBE 1 23 Jan 13:53:49 13:55:28 12° 305° (NW) 13:57:07 437.505/2401.250
BUGSAT 1 23 Jan 13:57:00 13:59:20 15° 271° (W) 14:01:40 437.445
AO-91 23 Jan 14:00:22 14:02:34 16° 269° (W) 14:04:50 145.960
MOZHAYETS 4 23 Jan 14:20:32 14:22:57 14° 88° (E) 14:25:20
50 SAT 23 Jan 14:28:43 14:31:51 75° 103° (ESE) 14:34:57 437.505
AO-7 23 Jan 14:32:10 14:40:31 83° 69° (ENE) 14:48:58 .
PCSat 23 Jan 14:48:15 14:49:57 11° 8° (N) 14:51:38 145.827
BEESAT 23 Jan 14:51:42 14:54:41 16° 89° (E) 14:57:38 436.000
SPROUT 23 Jan 14:55:59 14:56:07 10° 305° (NW) 14:56:15 437.525
ITAMSAT 1 23 Jan 14:58:41 15:03:49 70° 71° (ENE) 15:08:59 435.822/435.867
UKube-1 23 Jan 15:05:57 15:10:16 77° 287° (WNW) 15:14:34 .
RS-15 23 Jan 15:09:53 15:21:35 53° 33° (NNE) 15:32:37 29.354- 29.394
SO-50 23 Jan 15:13:29 15:15:32 13° 251° (WSW) 15:17:36 436.795
AO-85 23 Jan 15:13:59 15:15:41 12° 349° (N) 15:17:26 145.980
VELOX 1 23 Jan 15:18:11 15:19:35 11° 305° (NW) 15:20:58 145.980
DX 1 23 Jan 15:23:51 15:27:47 34° 293° (WNW) 15:31:41 434.975-435.025
M-CUBED/EXP-1 PRIME 23 Jan 15:36:42 15:40:48 52° 66° (ENE) 15:44:36 437.505
DOVE 4 23 Jan 15:36:59 15:40:52 37° 69° (ENE) 15:44:42 437.250
HO-68 23 Jan 15:44:37 15:47:40 13° 40° (NE) 15:50:44 435.675
ITUPSAT 1 23 Jan 15:50:19 15:55:03 53° 100° (E) 15:59:45 437.325
MOZHAYETS 4 23 Jan 15:56:01 16:00:41 77° 285° (WNW) 16:05:16
LilacSat-2 23 Jan 15:59:43 16:00:53 11° 59° (ENE) 16:02:02 437.200
CUBESAT XI-V 23 Jan 16:06:15 16:10:35 38° 97° (E) 16:14:52 437.345
BEESAT 3 23 Jan 16:16:35 16:19:48 23° 36° (NE) 16:22:57 437.485
NO-84 23 Jan 16:24:27 16:27:04 24° 138° (SE) 16:29:33 435.350 FM
KAITUO 1B 23 Jan 16:24:48 16:26:36 13° 61° (ENE) 16:28:24 145.475/437.950
AO-7 23 Jan 16:27:36 16:34:14 26° 269° (W) 16:40:55 .
BEESAT 23 Jan 16:28:10 16:32:57 71° 288° (WNW) 16:37:43 436.000
XW-2F 23 Jan 16:30:17 16:33:00 19° 64° (ENE) 16:35:43 145.980 - 146.000
NUDT-PHONESAT 23 Jan 16:30:28 16:32:28 14° 61° (ENE) 16:34:28 437.300
PCSat 23 Jan 16:31:11 16:35:28 23° 33° (NNE) 16:39:43 145.827
ITAMSAT 1 23 Jan 16:40:15 16:43:48 18° 270° (W) 16:47:21 435.822/435.867
XW-2D 23 Jan 16:41:46 16:45:01 27° 67° (ENE) 16:48:16 145.860 - 145.880
UKube-1 23 Jan 16:44:17 16:45:32 11° 305° (NW) 16:46:48 .
CUTE-I 23 Jan 16:51:26 16:56:15 37° 64° (ENE) 17:01:05 437.470
AO-85 23 Jan 16:56:04 16:58:08 13° 14° (NNE) 17:00:15 145.980
XW-2B 23 Jan 16:59:06 17:02:40 38° 70° (ENE) 17:06:14 145.730 - 145.750
KKS-1 23 Jan 17:05:42 17:09:19 24° 94° (E) 17:12:56 437.445
BEESAT 2 23 Jan 17:11:10 17:14:29 23° 36° (NE) 17:17:45 435.950
M-CUBED/EXP-1 PRIME 23 Jan 17:12:29 17:15:22 18° 261° (W) 17:18:08 437.505
SEEDS 23 Jan 17:12:47 17:14:44 13° 58° (ENE) 17:16:41 437.485
STARS 23 Jan 17:15:03 17:16:56 12° 88° (E) 17:18:49 437.465
DOVE 4 23 Jan 17:15:21 17:18:43 23° 267° (W) 17:22:02 437.250
RS-15 23 Jan 17:22:59 17:34:34 66° 241° (WSW) 17:45:32 29.354- 29.394
HO-68 23 Jan 17:26:59 17:33:46 48° 62° (ENE) 17:40:33 435.675
ITUPSAT 1 23 Jan 17:28:45 17:32:33 24° 299° (WNW) 17:36:20 437.325
CUTE 1.7 + AOD 2 23 Jan 17:28:49 17:32:27 28° 66° (ENE) 17:36:04 437.475
XW-2C 23 Jan 17:29:19 17:33:10 86° 70° (ENE) 17:36:59 145.795 - 145.815
LilacSat-2 23 Jan 17:30:41 17:34:32 84° 257° (WSW) 17:38:25 437.200
MOZHAYETS 4 23 Jan 17:35:12 17:37:02 12° 305° (NW) 17:38:51
CUBESAT XI-V 23 Jan 17:43:52 17:47:49 28° 296° (WNW) 17:51:43 437.345
BEESAT 3 23 Jan 17:53:45 17:57:37 59° 237° (WSW) 18:01:26 437.485
KAITUO 1B 23 Jan 17:56:22 18:00:05 65° 258° (WSW) 18:03:49 145.475/437.950
NO-84 23 Jan 18:01:07 18:04:04 50° 335° (NNW) 18:06:53 435.350 FM
NUDT-PHONESAT 23 Jan 18:02:10 18:05:52 59° 259° (W) 18:09:33 437.300
XW-2F 23 Jan 18:03:12 18:06:50 42° 262° (W) 18:10:28 145.980 - 146.000
BEESAT 23 Jan 18:08:04 18:09:52 12° 307° (NW) 18:11:40 436.000
UWE-3 23 Jan 18:08:49 18:12:41 29° 65° (ENE) 18:16:39 435.000/436.395/437.385
CUBEBUG 2 23 Jan 18:08:52 18:13:08 46° 70° (ENE) 18:17:33 437.445
PCSat 23 Jan 18:14:11 18:19:39 85° 54° (NE) 18:25:05 145.827
XW-2D 23 Jan 18:15:48 18:19:07 28° 265° (W) 18:22:27 145.860 - 145.880
AAUSAT CUBESAT 2 23 Jan 18:19:27 18:22:50 25° 65° (ENE) 18:26:12 437.432
ZACube-1 23 Jan 18:26:25 18:30:03 24° 63° (ENE) 18:33:44 437.345
CUTE-I 23 Jan 18:31:24 18:36:17 37° 263° (W) 18:41:13 437.470
AO-73 23 Jan 18:31:26 18:35:02 24° 63° (ENE) 18:38:42 145.935
STRAND 1 23 Jan 18:34:04 18:36:41 14° 87° (E) 18:39:18 437.568
XW-2B 23 Jan 18:34:09 18:36:58 19° 268° (W) 18:39:48 145.730 - 145.750
AO-85 23 Jan 18:35:48 18:40:01 30° 37° (NE) 18:44:30 145.980
KKS-1 23 Jan 18:41:49 18:46:02 42° 292° (WNW) 18:50:14 437.445
SEEDS 23 Jan 18:45:35 18:49:48 83° 257° (WSW) 18:54:02 437.485
BEESAT 2 23 Jan 18:48:33 18:52:31 59° 237° (WSW) 18:56:25 435.950
STARS 23 Jan 18:49:24 18:53:51 81° 284° (WNW) 18:58:16 437.465
Oscar 11 23 Jan 19:01:21 19:05:06 29° 66° (ENE) 19:08:51 .
CUTE 1.7 + AOD 2 23 Jan 19:04:17 19:08:10 34° 264° (W) 19:12:04 437.475
XW-2A 23 Jan 19:12:02 19:15:26 71° 74° (ENE) 19:18:51 145.665 - 145.685
HO-68 23 Jan 19:14:55 19:21:36 41° 263° (W) 19:28:19 435.675
FO-29 23 Jan 19:23:39 19:27:01 17° 89° (E) 19:30:24 435.910
nSIGHT-1 23 Jan 19:30:22 19:32:28 17° 139° (SE) 19:34:35 .
RS-15 23 Jan 19:37:55 19:44:25 17° 266° (W) 19:50:47 29.354- 29.394
NO-84 23 Jan 19:39:16 19:41:40 22° 356° (N) 19:44:00 435.350 FM
UWE-3 23 Jan 19:44:51 19:49:00 37° 264° (W) 19:53:18 435.000/436.395/437.385
CUBEBUG 2 23 Jan 19:46:29 19:49:59 22° 269° (W) 19:53:36 437.445
AAUSAT CUBESAT 2 23 Jan 19:54:19 19:58:08 35° 263° (W) 20:01:57 437.432
ISS 23 Jan 19:54:58 19:57:24 19° 140° (SE) 19:59:49 437.550
PCSat 23 Jan 19:58:54 20:02:20 17° 255° (WSW) 20:05:47 145.827
ZACube-1 23 Jan 20:01:45 20:06:04 45° 262° (W) 20:10:29 437.345
DELFI C3 23 Jan 20:04:08 20:07:16 24° 65° (ENE) 20:10:25 145.870
AO-73 23 Jan 20:06:41 20:11:00 45° 262° (W) 20:15:24 145.935
Max Valier Satellite 23 Jan 20:07:52 20:10:24 17° 63° (ENE) 20:12:55 145.860
STRAND 1 23 Jan 20:11:24 20:16:35 89° 292° (WNW) 20:21:45 437.568
AO-85 23 Jan 20:15:56 20:20:48 63° 236° (SW) 20:25:57 145.980
EO-88 23 Jan 20:19:57 20:22:11 16° 63° (ENE) 20:24:26 145.990 - 145.960
STARS 23 Jan 20:27:45 20:29:28 12° 305° (NW) 20:31:09 437.465
Oscar 11 23 Jan 20:37:10 20:41:08 34° 264° (W) 20:45:08 .
UNISAT 6 23 Jan 20:52:12 20:54:40 14° 87° (E) 20:57:06 437.425
nSIGHT-1 23 Jan 21:05:04 21:08:14 80° 157° (SSE) 21:11:25 .
FO-29 23 Jan 21:07:34 21:12:46 69° 288° (WNW) 21:17:59 435.910
NO-84 23 Jan 21:16:46 21:19:22 32° 17° (NNE) 21:21:59 435.350 FM
LO-87 23 Jan 21:30:09 21:32:01 14° 61° (ENE) 21:33:53 145.935 - 145.965
ISS 23 Jan 21:30:15 21:33:32 87° 154° (SSE) 21:36:48 437.550
DELFI C3 23 Jan 21:38:18 21:41:52 34° 263° (W) 21:45:27 145.870
Max Valier Satellite 23 Jan 21:40:18 21:43:53 45° 261° (W) 21:47:30 145.860
ESTCUBE 1 23 Jan 21:42:35 21:45:54 20° 61° (ENE) 21:49:13 437.505/2401.250
EO-88 23 Jan 21:51:54 21:55:27 49° 261° (W) 21:59:01 145.990 - 145.960
STRAND 1 23 Jan 21:51:59 21:55:04 16° 305° (NW) 21:58:08 437.568
AO-85 23 Jan 21:59:25 22:00:25 11° 253° (WSW) 22:01:26 145.980
TIGRISAT 23 Jan 22:11:03 22:15:46 68° 102° (ESE) 22:20:26 435.000
UNISAT 6 23 Jan 22:27:12 22:31:56 80° 286° (WNW) 22:36:38 437.425
YUBILEINY 23 Jan 22:31:22 22:39:44 50° 88° (E) 22:48:03 435.215
SPROUT 23 Jan 22:39:06 22:42:00 18° 61° (ENE) 22:44:56 437.525
nSIGHT-1 23 Jan 22:41:28 22:44:33 47° 356° (N) 22:47:39 .
NO-84 23 Jan 22:53:51 22:56:35 47° 217° (SW) 22:59:22 435.350 FM
FO-29 23 Jan 22:55:03 22:56:56 12° 309° (NW) 22:58:49 435.910
LO-87 23 Jan 23:01:28 23:04:58 56° 260° (W) 23:08:33 145.935 - 145.965
VELOX 1 23 Jan 23:05:13 23:08:23 20° 61° (ENE) 23:11:34 145.980
ISS 23 Jan 23:07:00 23:10:11 48° 357° (N) 23:13:23 437.550
EO-79 23 Jan 23:14:29 23:16:34 13° 88° (E) 23:18:37 145.935-145.965
ESTCUBE 1 23 Jan 23:17:53 23:22:20 55° 260° (W) 23:26:48 437.505/2401.250
PRISM 23 Jan 23:19:05 23:23:10 82° 105° (ESE) 23:27:16 437.425
O/OREOS (USA 219) 23 Jan 23:19:22 23:22:25 18° 101° (E) 23:25:29 437.305
TIGRISAT 23 Jan 23:48:44 23:51:57 19° 300° (WNW) 23:55:10 435.000
POLYITAN 1 23 Jan 23:49:03 23:52:49 28° 95° (E) 23:56:32 437.675
AIST 2D 23 Jan 23:56:26 23:59:54 66° 285° (WNW) 00:03:19 435.315
NANOSAT C BR1 24 Jan 00:01:36 00:05:31 33° 97° (E) 00:09:23 145.865
UNISAT 6 24 Jan 00:05:45 00:07:52 13° 304° (NW) 00:09:59 437.425
SPROUT 24 Jan 00:13:18 00:17:29 57° 259° (W) 00:21:43 437.525
nSIGHT-1 24 Jan 00:17:47 00:20:58 69° 17° (NNE) 00:24:08 .
QB50P2 24 Jan 00:18:44 00:23:01 63° 101° (E) 00:27:16 145.880/145.840
UKube-1 24 Jan 00:29:21 00:32:22 19° 60° (ENE) 00:35:23 .
